• In Hungary
  • List of Countries
  • For 7 days
  • Water Temperature
  • Satellite Maps
  • Weather Map
  • News
  • Weather Widgets
  • user-avatar
    Login

    Hourly Weather Melbourne

    Today, 21 November, Tuesday

    Time Temperature Precipitation Wind Pressure Humidity
    00:00 +21°C° 0 mm 1 mps 763 mmHg 62%
    01:00 +20°C° 0 mm 1 mps 763 mmHg 63%
    02:00 +20°C° 0 mm 1 mps 763 mmHg 62%
    03:00 +20°C° 0 mm 1 mps 763 mmHg 62%
    04:00 +18°C° 0 mm 2 mps 763 mmHg 63%
    05:00 +19°C° 0 mm 2 mps 764 mmHg 62%
    06:00 +21°C° 0 mm 3 mps 764 mmHg 60%
    07:00 +22°C° 0 mm 3 mps 764 mmHg 59%
    08:00 +25°C° 0 mm 3 mps 764 mmHg 53%
    09:00 +27°C° 0 mm 3 mps 764 mmHg 47%
    10:00 +31°C° 0 mm 2 mps 764 mmHg 38%
    11:00 +31°C° 0 mm 2 mps 763 mmHg 34%
    12:00 +32°C° 0 mm 2 mps 763 mmHg 31%
    13:00 +34°C° 0 mm 2 mps 762 mmHg 27%
    14:00 +34°C° 0 mm 2 mps 762 mmHg 28%
    15:00 +34°C° 0 mm 2 mps 762 mmHg 28%
    16:00 +33°C° 0 mm 1 mps 761 mmHg 30%
    17:00 +31°C° 0 mm 2 mps 761 mmHg 36%
    18:00 +28°C° 0 mm 2 mps 761 mmHg 43%
    19:00 +26°C° 0 mm 3 mps 761 mmHg 50%
    20:00 +25°C° 0 mm 2 mps 762 mmHg 52%
    21:00 +24°C° 0 mm 2 mps 762 mmHg 54%
    22:00 +24°C° 0 mm 3 mps 761 mmHg 51%
    23:00 +23°C° 0 mm 2 mps 761 mmHg 52%

    Tomorrow, 22 November, Wednesday

    Time Temperature Precipitation Wind Pressure Humidity
    00:00 +21°C° 0 mm 2 mps 761 mmHg 52%
    01:00 +21°C° 0 mm 1 mps 761 mmHg 53%
    02:00 +21°C° 0 mm 1 mps 761 mmHg 53%
    03:00 +21°C° 0 mm 1 mps 761 mmHg 52%
    04:00 +20°C° 0 mm 1 mps 761 mmHg 52%
    05:00 +20°C° 0 mm 2 mps 761 mmHg 53%
    06:00 +21°C° 0 mm 2 mps 761 mmHg 54%
    07:00 +22°C° 0 mm 3 mps 761 mmHg 54%
    08:00 +26°C° 0 mm 3 mps 761 mmHg 49%
    09:00 +28°C° 0 mm 3 mps 761 mmHg 44%
    10:00 +30°C° 0 mm 3 mps 761 mmHg 39%
    11:00 +31°C° 0 mm 2 mps 760 mmHg 34%
    12:00 +32°C° 0 mm 2 mps 760 mmHg 30%
    13:00 +34°C° 0 mm 1 mps 759 mmHg 26%
    14:00 +34°C° 0 mm 2 mps 759 mmHg 27%
    15:00 +34°C° 0 mm 3 mps 758 mmHg 28%
    16:00 +33°C° 0 mm 3 mps 758 mmHg 28%
    17:00 +30°C° 0 mm 3 mps 758 mmHg 35%
    18:00 +28°C° 0 mm 3 mps 758 mmHg 41%
    19:00 +25°C° 0 mm 3 mps 758 mmHg 47%
    20:00 +24°C° 0 mm 2 mps 758 mmHg 50%
    21:00 +21°C° 0 mm 2 mps 758 mmHg 52%
    22:00 +20°C° 0 mm 1 mps 759 mmHg 55%
    23:00 +20°C° 0 mm 1 mps 758 mmHg 57%

    Day after tomorrow, 23 November, Thursday

    Time Temperature Precipitation Wind Pressure Humidity
    00:00 +19°C° 0 mm 1 mps 758 mmHg 59%
    01:00 +19°C° 0 mm 1 mps 758 mmHg 61%
    02:00 +19°C° 0 mm 1 mps 758 mmHg 62%
    03:00 +18°C° 0 mm 1 mps 757 mmHg 64%
    04:00 +18°C° 0 mm 1 mps 757 mmHg 65%
    05:00 +20°C° 0 mm 1 mps 757 mmHg 63%
    06:00 +20°C° 0 mm 2 mps 758 mmHg 60%
    07:00 +23°C° 0 mm 2 mps 758 mmHg 58%
    08:00 +25°C° 0 mm 2 mps 758 mmHg 51%
    09:00 +28°C° 0 mm 3 mps 758 mmHg 45%
    10:00 +30°C° 0 mm 3 mps 758 mmHg 39%
    11:00 +31°C° 0 mm 3 mps 757 mmHg 35%
    12:00 +32°C° 0 mm 2 mps 757 mmHg 32%
    13:00 +35°C° 0 mm 2 mps 756 mmHg 28%
    14:00 +34°C° 0 mm 2 mps 756 mmHg 29%
    15:00 +33°C° 0 mm 1 mps 755 mmHg 30%
    16:00 +33°C° 0 mm 1 mps 755 mmHg 32%
    17:00 +30°C° 0.1 mm 1 mps 755 mmHg 41%
    18:00 +28°C° 0.1 mm 1 mps 755 mmHg 50%
    19:00 +25°C° 0.1 mm 2 mps 755 mmHg 59%
    20:00 +25°C° 0.2 mm 2 mps 756 mmHg 61%
    21:00 +24°C° 0.2 mm 2 mps 756 mmHg 64%
    22:00 +23°C° 0.2 mm 2 mps 757 mmHg 66%
    23:00 +23°C° 0 mm 2 mps 756 mmHg 65%

    24 November, Friday

    Time Temperature Precipitation Wind Pressure Humidity
    00:00 +23°C° 0 mm 2 mps 756 mmHg 65%
    01:00 +23°C° 0 mm 2 mps 756 mmHg 65%
    02:00 +21°C° 0 mm 2 mps 756 mmHg 64%
    03:00 +21°C° 0 mm 3 mps 757 mmHg 63%
    04:00 +21°C° 0 mm 3 mps 757 mmHg 61%
    05:00 +22°C° 0 mm 3 mps 757 mmHg 60%
    06:00 +22°C° 0 mm 3 mps 757 mmHg 59%
    07:00 +24°C° 0 mm 3 mps 758 mmHg 58%
    08:00 +26°C° 0 mm 3 mps 758 mmHg 50%
    09:00 +29°C° 0 mm 3 mps 758 mmHg 42%
    10:00 +33°C° 0 mm 3 mps 758 mmHg 34%
    11:00 +34°C° 0 mm 3 mps 758 mmHg 31%
    12:00 +35°C° 0 mm 2 mps 757 mmHg 28%
    13:00 +36°C° 0 mm 2 mps 757 mmHg 25%
    14:00 +35°C° 0 mm 2 mps 757 mmHg 28%
    15:00 +34°C° 0 mm 3 mps 757 mmHg 32%
    16:00 +33°C° 0 mm 3 mps 756 mmHg 36%
    17:00 +30°C° 0 mm 3 mps 757 mmHg 42%
    18:00 +28°C° 0 mm 3 mps 757 mmHg 48%
    19:00 +26°C° 0 mm 3 mps 757 mmHg 54%
    20:00 +25°C° 0 mm 2 mps 757 mmHg 56%
    21:00 +24°C° 0 mm 2 mps 758 mmHg 57%
    22:00 +24°C° 0 mm 1 mps 758 mmHg 59%
    23:00 +23°C° 0 mm 1 mps 758 mmHg 61%

    25 November, Saturday

    Time Temperature Precipitation Wind Pressure Humidity
    00:00 +22°C° 0 mm 1 mps 758 mmHg 63%
    01:00 +21°C° 0 mm 1 mps 758 mmHg 65%
    02:00 +21°C° 0 mm 1 mps 758 mmHg 64%
    03:00 +20°C° 0 mm 2 mps 758 mmHg 62%
    04:00 +20°C° 0 mm 2 mps 758 mmHg 61%
    05:00 +21°C° 0 mm 2 mps 758 mmHg 60%
    06:00 +23°C° 0 mm 2 mps 758 mmHg 58%
    07:00 +24°C° 0 mm 3 mps 759 mmHg 56%
    08:00 +26°C° 0 mm 3 mps 759 mmHg 51%
    09:00 +28°C° 0 mm 3 mps 759 mmHg 47%
    10:00 +30°C° 0 mm 3 mps 759 mmHg 42%
    11:00 +30°C° 0 mm 4 mps 758 mmHg 41%
    12:00 +30°C° 0 mm 5 mps 758 mmHg 40%
    13:00 +30°C° 0 mm 5 mps 758 mmHg 39%
    14:00 +32°C° 0 mm 5 mps 757 mmHg 37%
    15:00 +32°C° 0 mm 5 mps 757 mmHg 36%
    16:00 +33°C° 0 mm 5 mps 757 mmHg 35%
    17:00 +30°C° 0.1 mm 4 mps 757 mmHg 43%
    18:00 +28°C° 0.1 mm 3 mps 757 mmHg 52%
    19:00 +26°C° 0.1 mm 3 mps 757 mmHg 61%
    20:00 +24°C° 0.3 mm 2 mps 757 mmHg 68%
    21:00 +23°C° 0.3 mm 2 mps 757 mmHg 76%
    22:00 +21°C° 0.3 mm 1 mps 758 mmHg 84%
    23:00 +21°C° 0.1 mm 1 mps 757 mmHg 85%

    26 November, Sunday

    Time Temperature Precipitation Wind Pressure Humidity
    00:00 +21°C° 0.1 mm 1 mps 757 mmHg 86%
    01:00 +20°C° 0.1 mm 1 mps 757 mmHg 87%
    02:00 +19°C° 0.1 mm 2 mps 756 mmHg 87%
    03:00 +19°C° 0.1 mm 2 mps 756 mmHg 87%
    04:00 +19°C° 0.1 mm 3 mps 756 mmHg 87%
    05:00 +20°C° 0.6 mm 3 mps 756 mmHg 85%
    06:00 +21°C° 0.6 mm 3 mps 756 mmHg 84%
    07:00 +21°C° 0.6 mm 4 mps 757 mmHg 83%
    08:00 +23°C° 0.3 mm 4 mps 757 mmHg 74%
    09:00 +27°C° 0.3 mm 3 mps 756 mmHg 65%
    10:00 +29°C° 0.3 mm 3 mps 756 mmHg 56%
    11:00 +29°C° 0.2 mm 3 mps 756 mmHg 54%
    12:00 +30°C° 0.2 mm 3 mps 756 mmHg 51%
    13:00 +31°C° 0.2 mm 2 mps 756 mmHg 48%
    14:00 +30°C° 0.2 mm 3 mps 756 mmHg 50%
    15:00 +30°C° 0.2 mm 3 mps 755 mmHg 51%
    16:00 +29°C° 0.2 mm 3 mps 755 mmHg 52%
    17:00 +27°C° 1.4 mm 3 mps 756 mmHg 63%
    18:00 +25°C° 1.4 mm 3 mps 756 mmHg 73%
    19:00 +22°C° 1.4 mm 3 mps 757 mmHg 83%
    20:00 +21°C° 1 mm 3 mps 757 mmHg 87%
    21:00 +20°C° 1 mm 2 mps 757 mmHg 92%
    22:00 +19°C° 1 mm 2 mps 758 mmHg 96%
    23:00 +19°C° 0.8 mm 2 mps 758 mmHg 96%
    Show more